Time,TemperatureF,DewpointF,PressureIn,WindDirection,WindDirectionDegrees,WindSpeedMPH,WindSpeedGustMPH,Humidity,HourlyPrecipIn,Conditions,Clouds,dailyrainin,SoftwareType,DateUTC
2013-03-04 00:01:00,25.4,12.7,29.76,NW,315,5.0,12.0,58,0.00,,,-99.99,WeatherLink 5.7,2013-03-04 05:01:00,
2013-03-04 00:11:00,25.3,12.6,29.76,WNW,292,5.0,11.0,58,0.00,,,-99.99,WeatherLink 5.7,2013-03-04 05:11:00,
2013-03-04 00:20:00,25.2,12.5,29.76,NW,315,5.0,11.0,58,0.00,,,-99.99,WeatherLink 5.7,2013-03-04 05:20:00,
2013-03-04 00:31:00,25.1,12.4,29.77,NW,315,5.0,18.0,58,0.00,,,-99.99,WeatherLink 5.7,2013-03-04 05:31:00,
2013-03-04 00:41:00,25.0,12.3,29.77,NW,315,5.0,12.0,58,0.00,,,-99.99,WeatherLink 5.7,2013-03-04 05:41:00,
2013-03-04 00:51:00,24.9,12.6,29.77,NW,315,5.0,10.0,59,0.00,,,-99.99,WeatherLink 5.7,2013-03-04 05:51:00,
2013-03-04 01:01:00,24.8,12.5,29.77,NW,315,5.0,10.0,59,0.00,,,-99.99,WeatherLink 5.7,2013-03-04 06:01:00,
2013-03-04 01:11:00,24.7,12.8,29.77,NW,315,4.0,10.0,60,0.00,,,-99.99,WeatherLink 5.7,2013-03-04 06:11:00,
2013-03-04 01:21:00,24.6,12.7,29.77,NW,315,4.0,7.0,60,0.00,,,-99.99,WeatherLink 5.7,2013-03-04 06:21:00,
2013-03-04 01:31:00,24.4,12.9,29.76,NW,315,5.0,14.0,61,0.00,,,-99.99,WeatherLink 5.7,2013-03-04 06:31:00,
2013-03-04 01:41:00,24.4,12.9,29.77,NW,315,5.0,10.0,61,0.00,,,-99.99,WeatherLink 5.7,2013-03-04 06:41:00,
2013-03-04 01:51:00,24.4,13.2,29.76,NW,315,4.0,9.0,62,0.00,,,-99.99,WeatherLink 5.7,2013-03-04 06:51:00,
2013-03-04 02:01:00,24.4,13.2,29.76,NW,315,4.0,7.0,62,0.00,,,-99.99,WeatherLink 5.7,2013-03-04 07:01:00,
2013-03-04 02:11:00,24.4,13.2,29.76,NW,315,4.0,8.0,62,0.00,,,-99.99,WeatherLink 5.7,2013-03-04 07:11:00,
2013-03-04 02:20:00,24.5,13.7,29.76,NW,315,3.0,7.0,63,0.00,,,-99.99,WeatherLink 5.7,2013-03-04 07:20:00,
2013-03-04 02:31:00,24.8,14.0,29.76,NW,315,4.0,8.0,63,0.00,,,-99.99,WeatherLink 5.7,2013-03-04 07:31:00,
2013-03-04 02:41:00,25.0,14.2,29.77,NNW,337,5.0,12.0,63,0.00,,,-99.99,WeatherLink 5.7,2013-03-04 07:41:00,
2013-03-04 02:51:00,25.1,14.3,29.76,NNW,337,5.0,9.0,63,0.00,,,-99.99,WeatherLink 5.7,2013-03-04 07:51:00,
2013-03-04 03:01:00,25.2,14.4,29.76,NW,315,4.0,8.0,63,0.00,,,-99.99,WeatherLink 5.7,2013-03-04 08:01:00,
2013-03-04 03:11:00,25.3,14.5,29.76,NNW,337,4.0,7.0,63,0.00,,,-99.99,WeatherLink 5.7,2013-03-04 08:11:00,
2013-03-04 03:21:00,25.3,14.5,29.77,NW,315,4.0,7.0,63,0.00,,,-99.99,WeatherLink 5.7,2013-03-04 08:21:00,
2013-03-04 03:31:00,25.4,14.9,29.76,NW,315,4.0,8.0,64,0.00,,,-99.99,WeatherLink 5.7,2013-03-04 08:31:00,
2013-03-04 03:41:00,25.4,14.5,29.76,NW,315,5.0,10.0,63,0.00,,,-99.99,WeatherLink 5.7,2013-03-04 08:41:00,
2013-03-04 03:50:00,25.4,14.9,29.77,NW,315,5.0,10.0,64,0.00,,,-99.99,WeatherLink 5.7,2013-03-04 08:50:00,
2013-03-04 04:01:00,25.4,14.9,29.76,NW,315,4.0,8.0,64,0.00,,,-99.99,WeatherLink 5.7,2013-03-04 09:01:00,
2013-03-04 04:11:00,25.4,14.9,29.76,NNW,337,4.0,10.0,64,0.00,,,-99.99,WeatherLink 5.7,2013-03-04 09:11:00,
2013-03-04 04:21:00,25.5,15.0,29.77,WNW,292,3.0,7.0,64,0.00,,,-99.99,WeatherLink 5.7,2013-03-04 09:21:00,
2013-03-04 04:30:00,25.5,15.0,29.78,NW,315,4.0,9.0,64,0.00,,,-99.99,WeatherLink 5.7,2013-03-04 09:30:00,
2013-03-04 04:41:00,25.5,15.0,29.77,NW,315,3.0,7.0,64,0.00,,,-99.99,WeatherLink 5.7,2013-03-04 09:41:00,
2013-03-04 04:51:00,25.6,15.5,29.77,NW,315,4.0,9.0,65,0.00,,,-99.99,WeatherLink 5.7,2013-03-04 09:51:00,
2013-03-04 05:01:00,25.6,15.5,29.77,NW,315,5.0,9.0,65,0.00,,,-99.99,WeatherLink 5.7,2013-03-04 10:01:00,
2013-03-04 05:11:00,25.6,15.5,29.78,NW,315,5.0,9.0,65,0.00,,,-99.99,WeatherLink 5.7,2013-03-04 10:11:00,
2013-03-04 05:21:00,25.7,15.6,29.78,NW,315,5.0,8.0,65,0.00,,,-99.99,WeatherLink 5.7,2013-03-04 10:21:00,
2013-03-04 05:31:00,25.7,15.6,29.78,WNW,292,3.0,7.0,65,0.00,,,-99.99,WeatherLink 5.7,2013-03-04 10:31:00,
2013-03-04 05:41:00,25.7,15.6,29.78,NW,315,3.0,7.0,65,0.00,,,-99.99,WeatherLink 5.7,2013-03-04 10:41:00,
2013-03-04 05:51:00,25.7,15.6,29.79,NW,315,3.0,9.0,65,0.00,,,-99.99,WeatherLink 5.7,2013-03-04 10:51:00,
2013-03-04 06:01:00,25.6,15.5,29.78,NW,315,3.0,9.0,65,0.00,,,-99.99,WeatherLink 5.7,2013-03-04 11:01:00,
2013-03-04 06:11:00,25.6,15.5,29.79,NW,315,3.0,8.0,65,0.00,,,-99.99,WeatherLink 5.7,2013-03-04 11:11:00,
2013-03-04 06:21:00,25.7,15.9,29.79,NW,315,2.0,5.0,66,0.00,,,-99.99,WeatherLink 5.7,2013-03-04 11:21:00,
2013-03-04 06:31:00,25.7,15.9,29.80,NW,315,2.0,5.0,66,0.00,,,-99.99,WeatherLink 5.7,2013-03-04 11:31:00,
2013-03-04 06:41:00,25.9,16.1,29.80,NW,315,2.0,9.0,66,0.00,,,-99.99,WeatherLink 5.7,2013-03-04 11:41:00,
2013-03-04 06:51:00,26.0,16.2,29.80,NW,315,4.0,10.0,66,0.00,,,-99.99,WeatherLink 5.7,2013-03-04 11:51:00,
2013-03-04 07:01:00,26.2,16.0,29.80,NNW,337,4.0,11.0,65,0.00,,,-99.99,WeatherLink 5.7,2013-03-04 12:01:00,
2013-03-04 07:11:00,26.2,16.0,29.81,NW,315,3.0,11.0,65,0.00,,,-99.99,WeatherLink 5.7,2013-03-04 12:11:00,
2013-03-04 07:21:00,26.4,16.2,29.80,NNW,337,3.0,7.0,65,0.00,,,-99.99,WeatherLink 5.7,2013-03-04 12:21:00,
2013-03-04 07:31:00,26.5,16.3,29.81,NW,315,3.0,8.0,65,0.00,,,-99.99,WeatherLink 5.7,2013-03-04 12:31:00,
2013-03-04 07:41:00,26.7,16.5,29.81,WNW,292,3.0,7.0,65,0.00,,,-99.99,WeatherLink 5.7,2013-03-04 12:41:00,
2013-03-04 07:51:00,26.9,16.3,29.81,NW,315,4.0,10.0,64,0.00,,,-99.99,WeatherLink 5.7,2013-03-04 12:51:00,
2013-03-04 08:01:00,27.1,16.5,29.80,NW,315,4.0,9.0,64,0.00,,,-99.99,WeatherLink 5.7,2013-03-04 13:01:00,
2013-03-04 08:11:00,27.5,16.5,29.81,NW,315,5.0,11.0,63,0.00,,,-99.99,WeatherLink 5.7,2013-03-04 13:11:00,
2013-03-04 08:21:00,28.0,17.0,29.81,NW,315,5.0,10.0,63,0.00,,,-99.99,WeatherLink 5.7,2013-03-04 13:21:00,
2013-03-04 08:31:00,28.4,17.0,29.81,NW,315,6.0,11.0,62,0.00,,,-99.99,WeatherLink 5.7,2013-03-04 13:31:00,
2013-03-04 08:41:00,28.6,16.8,29.81,NW,315,6.0,13.0,61,0.00,,,-99.99,WeatherLink 5.7,2013-03-04 13:41:00,
2013-03-04 08:51:00,28.5,17.1,29.81,NW,315,5.0,11.0,62,0.00,,,-99.99,WeatherLink 5.7,2013-03-04 13:51:00,
2013-03-04 09:01:00,29.4,17.2,29.81,NW,315,5.0,10.0,60,0.00,,,-99.99,WeatherLink 5.7,2013-03-04 14:01:00,
2013-03-04 09:11:00,30.5,17.1,29.81,NNW,337,6.0,12.0,57,0.00,,,-99.99,WeatherLink 5.7,2013-03-04 14:11:00,
2013-03-04 09:21:00,31.1,17.2,29.81,WNW,292,5.0,10.0,56,0.00,,,-99.99,WeatherLink 5.7,2013-03-04 14:21:00,
2013-03-04 09:31:00,31.4,17.1,29.81,NW,315,5.0,12.0,55,0.00,,,-99.99,WeatherLink 5.7,2013-03-04 14:31:00,
2013-03-04 09:41:00,31.7,16.9,29.81,NW,315,5.0,10.0,54,0.00,,,-99.99,WeatherLink 5.7,2013-03-04 14:41:00,
2013-03-04 09:51:00,32.4,16.7,29.81,NW,315,5.0,11.0,52,0.00,,,-99.99,WeatherLink 5.7,2013-03-04 14:51:00,
2013-03-04 10:01:00,32.8,16.6,29.81,NNW,337,5.0,11.0,51,0.00,,,-99.99,WeatherLink 5.7,2013-03-04 15:01:00,
2013-03-04 10:11:00,33.7,17.0,29.81,NW,315,4.0,10.0,50,0.00,,,-99.99,WeatherLink 5.7,2013-03-04 15:11:00,
2013-03-04 10:21:00,35.4,17.6,29.81,NW,315,3.0,8.0,48,0.00,,,-99.99,WeatherLink 5.7,2013-03-04 15:21:00,
2013-03-04 10:31:00,36.6,18.2,29.80,NW,315,4.0,12.0,47,0.00,,,-99.99,WeatherLink 5.7,2013-03-04 15:31:00,
2013-03-04 10:41:00,36.8,18.4,29.81,NNW,337,4.0,8.0,47,0.00,,,-99.99,WeatherLink 5.7,2013-03-04 15:41:00,
2013-03-04 10:51:00,37.9,18.9,29.80,NNW,337,4.0,9.0,46,0.00,,,-99.99,WeatherLink 5.7,2013-03-04 15:51:00,
2013-03-04 11:01:00,38.8,19.8,29.81,NW,315,4.0,7.0,46,0.00,,,-99.99,WeatherLink 5.7,2013-03-04 16:01:00,
2013-03-04 11:10:00,38.7,18.6,29.80,NW,315,5.0,13.0,44,0.00,,,-99.99,WeatherLink 5.7,2013-03-04 16:10:00,
2013-03-04 11:21:00,38.1,18.6,29.81,NW,315,5.0,11.0,45,0.00,,,-99.99,WeatherLink 5.7,2013-03-04 16:21:00,
2013-03-04 11:31:00,38.0,18.5,29.81,NW,315,5.0,10.0,45,0.00,,,-99.99,WeatherLink 5.7,2013-03-04 16:31:00,
2013-03-04 11:41:00,38.8,18.2,29.80,NW,315,4.0,10.0,43,0.00,,,-99.99,WeatherLink 5.7,2013-03-04 16:41:00,
2013-03-04 11:50:00,39.1,18.5,29.80,NW,315,5.0,10.0,43,0.00,,,-99.99,WeatherLink 5.7,2013-03-04 16:50:00,
2013-03-04 12:01:00,39.8,18.5,29.80,NNW,337,4.0,9.0,42,0.00,,,-99.99,WeatherLink 5.7,2013-03-04 17:01:00,
2013-03-04 12:11:00,40.3,19.0,29.80,NW,315,5.0,10.0,42,0.00,,,-99.99,WeatherLink 5.7,2013-03-04 17:11:00,
2013-03-04 12:21:00,40.1,18.8,29.81,NW,315,5.0,11.0,42,0.00,,,-99.99,WeatherLink 5.7,2013-03-04 17:21:00,
2013-03-04 12:30:00,40.5,18.6,29.81,NW,315,5.0,11.0,41,0.00,,,-99.99,WeatherLink 5.7,2013-03-04 17:30:00,
2013-03-04 12:41:00,40.6,19.3,29.81,NW,315,5.0,9.0,42,0.00,,,-99.99,WeatherLink 5.7,2013-03-04 17:41:00,
2013-03-04 12:51:00,41.2,19.2,29.80,NNW,337,5.0,11.0,41,0.00,,,-99.99,WeatherLink 5.7,2013-03-04 17:51:00,
2013-03-04 13:01:00,41.7,19.1,29.79,WNW,292,4.0,10.0,40,0.00,,,-99.99,WeatherLink 5.7,2013-03-04 18:01:00,
2013-03-04 13:11:00,41.8,19.2,29.79,NW,315,5.0,10.0,40,0.00,,,-99.99,WeatherLink 5.7,2013-03-04 18:11:00,
2013-03-04 13:21:00,42.3,19.1,29.78,NW,315,5.0,9.0,39,0.00,,,-99.99,WeatherLink 5.7,2013-03-04 18:21:00,
2013-03-04 13:30:00,41.9,19.3,29.78,NW,315,4.0,11.0,40,0.00,,,-99.99,WeatherLink 5.7,2013-03-04 18:30:00,
2013-03-04 13:41:00,42.8,19.5,29.79,NW,315,5.0,10.0,39,0.00,,,-99.99,WeatherLink 5.7,2013-03-04 18:41:00,
2013-03-04 13:51:00,43.0,19.7,29.78,NW,315,5.0,9.0,39,0.00,,,-99.99,WeatherLink 5.7,2013-03-04 18:51:00,
2013-03-04 14:01:00,42.1,19.5,29.79,NW,315,6.0,13.0,40,0.00,,,-99.99,WeatherLink 5.7,2013-03-04 19:01:00,
2013-03-04 14:11:00,41.3,18.8,29.79,NW,315,6.0,11.0,40,0.00,,,-99.99,WeatherLink 5.7,2013-03-04 19:11:00,
2013-03-04 14:21:00,41.0,19.1,29.79,NNW,337,7.0,16.0,41,0.00,,,-99.99,WeatherLink 5.7,2013-03-04 19:21:00,
2013-03-04 14:31:00,41.1,19.2,29.80,NW,315,5.0,11.0,41,0.00,,,-99.99,WeatherLink 5.7,2013-03-04 19:31:00,
2013-03-04 14:40:00,41.8,18.6,29.79,NW,315,3.0,8.0,39,0.00,,,-99.99,WeatherLink 5.7,2013-03-04 19:40:00,
2013-03-04 14:51:00,42.4,19.2,29.79,NNW,337,4.0,9.0,39,0.00,,,-99.99,WeatherLink 5.7,2013-03-04 19:51:00,
2013-03-04 15:01:00,42.0,18.8,29.80,NW,315,5.0,10.0,39,0.00,,,-99.99,WeatherLink 5.7,2013-03-04 20:01:00,
2013-03-04 15:10:00,41.0,18.5,29.79,NW,315,4.0,12.0,40,0.00,,,-99.99,WeatherLink 5.7,2013-03-04 20:10:00,
2013-03-04 15:21:00,40.3,18.4,29.79,NW,315,6.0,11.0,41,0.00,,,-99.99,WeatherLink 5.7,2013-03-04 20:21:00,
2013-03-04 15:30:00,39.9,18.1,29.79,NW,315,5.0,14.0,41,0.00,,,-99.99,WeatherLink 5.7,2013-03-04 20:30:00,
2013-03-04 15:41:00,40.0,18.2,29.79,NW,315,5.0,11.0,41,0.00,,,-99.99,WeatherLink 5.7,2013-03-04 20:41:00,
2013-03-04 15:50:00,39.5,18.3,29.79,NW,315,4.0,11.0,42,0.00,,,-99.99,WeatherLink 5.7,2013-03-04 20:50:00,
2013-03-04 16:00:00,38.9,18.3,29.80,NW,315,5.0,11.0,43,0.00,,,-99.99,WeatherLink 5.7,2013-03-04 21:00:00,
2013-03-04 16:12:00,38.1,17.5,29.80,NW,315,4.0,11.0,43,0.00,,,-99.99,WeatherLink 5.7,2013-03-04 21:12:00,
2013-03-04 16:21:00,37.7,17.7,29.80,WNW,292,4.0,9.0,44,0.00,,,-99.99,WeatherLink 5.7,2013-03-04 21:21:00,
2013-03-04 16:31:00,37.3,17.9,29.80,NW,315,5.0,10.0,45,0.00,,,-99.99,WeatherLink 5.7,2013-03-04 21:31:00,
2013-03-04 16:41:00,36.9,17.5,29.81,NW,315,5.0,11.0,45,0.00,,,-99.99,WeatherLink 5.7,2013-03-04 21:41:00,
2013-03-04 16:51:00,36.6,17.7,29.81,NW,315,5.0,10.0,46,0.00,,,-99.99,WeatherLink 5.7,2013-03-04 21:51:00,
2013-03-04 17:01:00,36.2,17.4,29.81,NW,315,4.0,11.0,46,0.00,,,-99.99,WeatherLink 5.7,2013-03-04 22:01:00,
2013-03-04 17:11:00,35.8,17.0,29.81,NW,315,5.0,13.0,46,0.00,,,-99.99,WeatherLink 5.7,2013-03-04 22:11:00,
2013-03-04 17:21:00,35.3,17.1,29.81,NW,315,5.0,11.0,47,0.00,,,-99.99,WeatherLink 5.7,2013-03-04 22:21:00,
2013-03-04 17:31:00,35.0,17.3,29.82,NW,315,5.0,14.0,48,0.00,,,-99.99,WeatherLink 5.7,2013-03-04 22:31:00,
2013-03-04 17:41:00,34.7,17.5,29.83,NW,315,5.0,12.0,49,0.00,,,-99.99,WeatherLink 5.7,2013-03-04 22:41:00,
2013-03-04 17:51:00,34.2,17.0,29.83,NW,315,4.0,10.0,49,0.00,,,-99.99,WeatherLink 5.7,2013-03-04 22:51:00,
2013-03-04 18:01:00,33.7,17.5,29.84,NW,315,3.0,6.0,51,0.00,,,-99.99,WeatherLink 5.7,2013-03-04 23:01:00,
2013-03-04 18:11:00,33.2,17.0,29.84,NW,315,4.0,10.0,51,0.00,,,-99.99,WeatherLink 5.7,2013-03-04 23:11:00,
2013-03-04 18:21:00,32.9,17.2,29.84,NW,315,4.0,8.0,52,0.00,,,-99.99,WeatherLink 5.7,2013-03-04 23:21:00,
2013-03-04 18:31:00,32.5,16.8,29.85,WNW,292,3.0,9.0,52,0.00,,,-99.99,WeatherLink 5.7,2013-03-04 23:31:00,
2013-03-04 18:41:00,32.3,17.1,29.85,NW,315,3.0,5.0,53,0.00,,,-99.99,WeatherLink 5.7,2013-03-04 23:41:00,
2013-03-04 18:51:00,32.0,17.2,29.85,NW,315,3.0,6.0,54,0.00,,,-99.99,WeatherLink 5.7,2013-03-04 23:51:00,
2013-03-04 19:01:00,31.9,17.1,29.85,NW,315,4.0,9.0,54,0.00,,,-99.99,WeatherLink 5.7,2013-03-05 00:01:00,
2013-03-04 19:11:00,32.0,17.2,29.86,NW,315,3.0,6.0,54,0.00,,,-99.99,WeatherLink 5.7,2013-03-05 00:11:00,
2013-03-04 19:21:00,32.2,17.4,29.87,NW,315,3.0,7.0,54,0.00,,,-99.99,WeatherLink 5.7,2013-03-05 00:21:00,
2013-03-04 19:31:00,32.2,17.4,29.87,NW,315,3.0,6.0,54,0.00,,,-99.99,WeatherLink 5.7,2013-03-05 00:31:00,
2013-03-04 19:41:00,32.1,17.7,29.87,NW,315,3.0,5.0,55,0.00,,,-99.99,WeatherLink 5.7,2013-03-05 00:41:00,
2013-03-04 19:51:00,31.9,17.5,29.87,NW,315,3.0,6.0,55,0.00,,,-99.99,WeatherLink 5.7,2013-03-05 00:51:00,
2013-03-04 20:01:00,31.9,18.0,29.86,NW,315,3.0,7.0,56,0.00,,,-99.99,WeatherLink 5.7,2013-03-05 01:01:00,
2013-03-04 20:11:00,31.8,17.9,29.87,NW,315,4.0,8.0,56,0.00,,,-99.99,WeatherLink 5.7,2013-03-05 01:11:00,
2013-03-04 20:21:00,31.8,17.9,29.88,NW,315,4.0,11.0,56,0.00,,,-99.99,WeatherLink 5.7,2013-03-05 01:21:00,
2013-03-04 20:31:00,31.8,18.3,29.87,NW,315,4.0,9.0,57,0.00,,,-99.99,WeatherLink 5.7,2013-03-05 01:31:00,
2013-03-04 20:41:00,31.7,18.2,29.87,NW,315,4.0,8.0,57,0.00,,,-99.99,WeatherLink 5.7,2013-03-05 01:41:00,
2013-03-04 20:51:00,31.5,18.0,29.87,NW,315,4.0,9.0,57,0.00,,,-99.99,WeatherLink 5.7,2013-03-05 01:51:00,
2013-03-04 21:01:00,31.4,18.3,29.87,NW,315,5.0,11.0,58,0.00,,,-99.99,WeatherLink 5.7,2013-03-05 02:01:00,
2013-03-04 21:11:00,31.3,18.2,29.88,NW,315,5.0,9.0,58,0.00,,,-99.99,WeatherLink 5.7,2013-03-05 02:11:00,
2013-03-04 21:21:00,31.2,18.1,29.88,NW,315,5.0,9.0,58,0.00,,,-99.99,WeatherLink 5.7,2013-03-05 02:21:00,
2013-03-04 21:31:00,31.1,18.4,29.88,NW,315,4.0,8.0,59,0.00,,,-99.99,WeatherLink 5.7,2013-03-05 02:31:00,
2013-03-04 21:41:00,31.0,18.3,29.89,WNW,292,5.0,9.0,59,0.00,,,-99.99,WeatherLink 5.7,2013-03-05 02:41:00,
2013-03-04 21:51:00,31.1,18.4,29.89,NW,315,5.0,11.0,59,0.00,,,-99.99,WeatherLink 5.7,2013-03-05 02:51:00,
2013-03-04 22:01:00,31.0,18.7,29.89,WNW,292,5.0,11.0,60,0.00,,,-99.99,WeatherLink 5.7,2013-03-05 03:01:00,
2013-03-04 22:11:00,30.8,18.5,29.89,NW,315,5.0,9.0,60,0.00,,,-99.99,WeatherLink 5.7,2013-03-05 03:11:00,
2013-03-04 22:21:00,30.7,18.4,29.90,NW,315,5.0,8.0,60,0.00,,,-99.99,WeatherLink 5.7,2013-03-05 03:21:00,
2013-03-04 22:31:00,30.6,18.3,29.90,NW,315,4.0,8.0,60,0.00,,,-99.99,WeatherLink 5.7,2013-03-05 03:31:00,
2013-03-04 22:41:00,30.6,18.7,29.90,NW,315,3.0,6.0,61,0.00,,,-99.99,WeatherLink 5.7,2013-03-05 03:41:00,
2013-03-04 22:51:00,30.6,18.3,29.90,NW,315,4.0,8.0,60,0.00,,,-99.99,WeatherLink 5.7,2013-03-05 03:51:00,
2013-03-04 23:01:00,30.7,18.4,29.90,NW,315,5.0,11.0,60,0.00,,,-99.99,WeatherLink 5.7,2013-03-05 04:01:00,
2013-03-04 23:11:00,30.7,18.4,29.91,NW,315,4.0,10.0,60,0.00,,,-99.99,WeatherLink 5.7,2013-03-05 04:11:00,
2013-03-04 23:21:00,30.7,18.4,29.91,NW,315,4.0,10.0,60,0.00,,,-99.99,WeatherLink 5.7,2013-03-05 04:21:00,
2013-03-04 23:31:00,30.7,18.4,29.91,NW,315,5.0,15.0,60,0.00,,,-99.99,WeatherLink 5.7,2013-03-05 04:31:00,
2013-03-04 23:41:00,30.6,18.3,29.91,NW,315,6.0,12.0,60,0.00,,,-99.99,WeatherLink 5.7,2013-03-05 04:41:00,
2013-03-04 23:51:00,30.6,18.7,29.91,NW,315,5.0,12.0,61,0.00,,,-99.99,WeatherLink 5.7,2013-03-05 04:51:00,